This demonstration page uses our WeatherBlox Daily Observations layout. Learn more.

40.92945, -100.16068

Hourly Observations for January 23, 2018

Temp ( °F °C ) Dew Point ( °F °C ) Humidity (%) Winds ( mph kmh ) Pressure ( in mb ) Visibility ( mi km ) Precip ( " mm )
12:15 am 00:15 Clear 17 -8.3 11 -11.5 78 78 WNW 12 19 30.24 1024 N/A 0 0
12:35 am 00:35 Clear 17 -8.5 11 -11.7 78 78 WNW 10 17 30.24 1024 N/A 0 0
12:55 am 00:55 Clear 16 -9 10 -12 79 79 WNW 10 17 30.24 1024 N/A 0 0
1:15 am 01:15 Clear 15 -9.3 10 -12.3 79 79 W 10 17 30.24 1024 N/A 0 0
1:35 am 01:35 Clear 17 -8.4 11 -11.5 79 79 W 13 20 30.24 1024 N/A 0 0
1:55 am 01:55 Clear 18 -7.9 12 -11.3 77 77 WNW 12 19 30.24 1024 N/A 0 0
2:15 am 02:15 Clear 18 -7.6 12 -11.2 76 76 WNW 13 20 30.21 1023 N/A 0 0
2:35 am 02:35 Clear 19 -7.3 12 -11 75 75 WNW 13 20 30.24 1024 N/A 0 0
2:55 am 02:55 Clear 18 -7.8 12 -11.3 76 76 WNW 12 19 30.27 1025 N/A 0 0
3:15 am 03:15 Clear 19 -7.5 12 -11.1 76 76 WNW 13 20 30.27 1025 N/A 0 0
3:35 am 03:35 Clear 18 -7.8 11 -11.4 76 76 WNW 13 20 30.27 1025 N/A 0 0
3:55 am 03:55 Clear 17 -8.1 11 -11.6 76 76 WNW 13 20 30.27 1025 N/A 0 0
4:15 am 04:15 Clear 16 -8.8 10 -12 78 78 WNW 12 19 30.27 1025 N/A 0 0
4:35 am 04:35 Clear 16 -8.8 10 -12.1 77 77 NW 12 19 30.27 1025 N/A 0 0
4:55 am 04:55 Clear 16 -9.1 10 -12.4 77 77 WNW 10 17 30.27 1025 10 16.0934 0 0
5:15 am 05:15 Clear 15 -9.6 9 -12.7 78 78 WNW 9 15 30.27 1025 10 16.0934 0 0
5:35 am 05:35 Clear 14 -10.1 8 -13.1 79 79 WNW 9 15 30.27 1025 10 16.0934 0 0
5:55 am 05:55 Clear 14 -10 8 -13.1 78 78 WNW 10 17 30.33 1027 10 16.0934 0 0
6:15 am 06:15 Clear 14 -10 8 -13.1 78 78 WNW 10 17 30.33 1027 10 16.0934 0 0
6:35 am 06:35 Clear 15 -9.2 10 -12.5 77 77 WNW 13 20 30.3 1026 10 16.0934 0 0
6:55 am 06:55 Clear 15 -9.3 9 -12.7 77 77 WNW 9 15 30.3 1026 10 16.0934 0 0
7:15 am 07:15 Clear 14 -9.9 8 -13.1 78 78 WNW 7 11 30.3 1026 10 16.0934 0 0
7:35 am 07:35 Clear 14 -10.1 8 -13.4 77 77 W 9 15 30.33 1027 10 16.0934 0 0
7:55 am 07:55 Clear 14 -10 9 -13 79 79 W 12 19 30.33 1027 10 16.0934 0 0
8:15 am 08:15 Sunny 15 -9.2 10 -12.5 77 77 WNW 12 19 30.3 1026 10 16.0934 0 0
8:35 am 08:35 Sunny 15 -9.3 10 -12.3 79 79 WNW 13 20 30.3 1026 10 16.0934 0 0
8:55 am 08:55 Sunny 17 -8.4 11 -11.6 78 78 WNW 13 20 30.33 1027 10 16.0934 0 0
9:15 am 09:15 Sunny 19 -7 13 -10.5 76 76 WNW 13 20 30.33 1027 10 16.0934 0 0
9:35 am 09:35 Sunny 20 -6.9 14 -10.2 78 78 WNW 14 22 30.36 1028 10 16.0934 0 0
9:55 am 09:55 Sunny 22 -5.7 15 -9.4 75 75 WNW 13 20 30.33 1027 10 16.0934 0 0
10:15 am 10:15 Sunny 23 -4.9 17 -8.5 76 76 WNW 12 19 30.33 1027 10 16.0934 0 0
10:35 am 10:35 Partly Cloudy 25 -4 18 -7.8 75 75 WNW 13 20 30.36 1028 10 16.0934 0 0
10:55 am 10:55 Mostly Cloudy 27 -2.9 20 -6.7 75 75 WNW 12 19 30.33 1027 10 16.0934 0 0
11:15 am 11:15 Cloudy 28 -2 22 -5.8 76 76 WNW 9 15 30.33 1027 10 16.0934 0 0
11:35 am 11:35 Cloudy 29 -1.5 22 -5.4 75 75 WNW 15 24 30.33 1027 10 16.0934 0 0
11:55 am 11:55 Cloudy 30 -1 23 -5 75 75 WNW 15 24 30.33 1027 10 16.0934 0 0
12:15 pm 12:15 Cloudy 30 -1 24 -4.7 76 76 WNW 13 20 30.33 1027 10 16.0934 0 0
12:35 pm 12:35 Cloudy 31 -0.3 25 -4.1 76 76 WNW 12 19 30.3 1026 10 16.0934 0 0
12:55 pm 12:55 Cloudy 32 0 26 -3.6 77 77 WNW 13 20 30.3 1026 10 16.0934 0 0
1:15 pm 13:15 Cloudy 33 0.3 27 -3 79 79 WNW 12 19 30.27 1025 10 16.0934 0 0
1:35 pm 13:35 Mostly Cloudy 34 1 28 -2.3 79 79 WNW 13 20 30.27 1025 10 16.0934 0 0
1:55 pm 13:55 Partly Cloudy 34 1.2 29 -1.9 80 80 WNW 13 20 30.27 1025 10 16.0934 0 0
2:15 pm 14:15 Sunny 35 1.6 28 -2 77 77 WNW 14 22 30.27 1025 10 16.0934 0 0
2:35 pm 14:35 Sunny 36 2 29 -1.9 76 76 WNW 10 17 30.27 1025 10 16.0934 0 0
2:55 pm 14:55 Sunny 35 1.9 29 -1.5 78 78 WNW 10 17 30.27 1025 10 16.0934 0 0
3:15 pm 15:15 Partly Cloudy 37 2.6 29 -1.7 74 74 WNW 10 17 30.27 1025 10 16.0934 0 0
3:35 pm 15:35 Partly Cloudy 37 2.5 29 -1.5 75 75 WNW 7 11 30.27 1025 10 16.0934 0 0
3:55 pm 15:55 Sunny 36 2.2 30 -1.3 78 78 W 6 9 30.3 1026 10 16.0934 0 0
4:15 pm 16:15 Sunny 36 2.1 29 -1.5 77 77 WNW 5 7 30.3 1026 10 16.0934 0 0
4:35 pm 16:35 Sunny 36 2 29 -1.8 76 76 WNW 7 11 30.3 1026 10 16.0934 0 0
4:55 pm 16:55 Sunny 35 1.8 28 -2.2 75 75 WNW 9 15 30.3 1026 10 16.0934 0 0
5:15 pm 17:15 Sunny 33 0.5 28 -2.4 81 81 WNW 7 11 30.3 1026 10 16.0934 0 0
5:35 pm 17:35 Sunny 33 0.4 27 -3 78 78 W 8 13 30.33 1027 10 16.0934 0 0
5:55 pm 17:55 Clear 32 0.2 26 -3.3 78 78 W 6 9 30.3 1026 10 16.0934 0 0
6:15 pm 18:15 Clear 31 -0.5 25 -4.1 77 77 W 3 6 30.36 1028 10 16.0934 0 0
6:35 pm 18:35 Clear 28 -2 24 -4.5 83 83 WSW 7 11 30.36 1028 10 16.0934 0 0
6:55 pm 18:55 Clear 29 -1.7 25 -4.1 84 84 W 8 13 30.36 1028 10 16.0934 0 0
7:15 pm 19:15 Clear 28 -2 24 -4.5 83 83 W 10 17 30.36 1028 10 16.0934 0 0
7:35 pm 19:35 Clear 28 -2.5 23 -5.1 83 83 W 12 19 30.36 1028 10 16.0934 0 0
7:55 pm 19:55 Clear 27 -2.9 22 -5.8 81 81 W 8 13 30.36 1028 10 16.0934 0 0
8:15 pm 20:15 Clear 24 -4.2 20 -6.7 83 83 W 8 13 30.39 1029 10 16.0934 0 0
8:35 pm 20:35 Clear 22 -5.7 18 -7.7 86 86 WNW 8 13 30.42 1030 10 16.0934 0 0
8:55 pm 20:55 Clear 22 -5.3 19 -7.1 87 87 WNW 9 15 30.42 1030 10 16.0934 0 0
9:15 pm 21:15 Clear 24 -4.6 19 -7.2 82 82 NW 9 15 30.42 1030 10 16.0934 0 0
9:35 pm 21:35 Clear 23 -4.8 19 -7.5 82 82 WNW 9 15 30.42 1030 10 16.0934 0 0
9:55 pm 21:55 Clear 24 -4.6 19 -7.3 82 82 WNW 10 17 30.42 1030 10 16.0934 0 0
10:15 pm 22:15 Clear 23 -5.1 18 -7.6 83 83 WNW 9 15 30.42 1030 10 16.0934 0 0
10:35 pm 22:35 Clear 23 -5 19 -7.5 83 83 NW 8 13 30.42 1030 10 16.0934 0 0
10:55 pm 22:55 Clear 23 -4.8 19 -7.5 82 82 WNW 10 17 30.42 1030 10 16.0934 0 0
11:15 pm 23:15 Clear 23 -5.1 18 -7.7 82 82 WNW 10 17 30.42 1030 10 16.0934 0 0
11:35 pm 23:35 Clear 22 -5.5 18 -8 83 83 NNW 9 15 30.42 1030 10 16.0934 0 0
11:55 pm 23:55 Clear 22 -5.6 17 -8.3 82 82 NW 10 17 30.42 1030 10 16.0934 0 0

Powered by AerisWeather